period_start,C,m1,H,J0,J1,J2,J3,J4,J5,JA,JB,JC,JD,JJ,JK,JN,#
2013-07-12 00:00:34,0.00,0.17,0.00,28.24,30.05,31.89,5.84,31.00,1011.24,2049.96,3374.57,3304.99,3583.97,349.55,316.47,15.61,0000 0000 0000 0000 000000
2013-07-12 00:01:34,0.02,0.17,0.00,28.23,30.06,31.88,5.64,31.13,1011.24,2049.97,3374.40,3304.98,3583.98,349.26,316.36,15.61,0000 0000 0000 0000 000000
2013-07-12 00:02:34,0.01,0.17,0.00,28.19,30.07,31.90,5.71,31.17,1011.24,2049.96,3374.26,3304.96,3583.96,349.27,315.71,15.62,0000 0000 0000 0000 000000
2013-07-12 00:03:35,0.03,0.17,0.00,28.19,30.07,31.88,5.67,31.25,1011.19,2049.95,3374.10,3304.92,3583.89,349.07,315.55,15.62,0000 0000 0000 0000 000000
2013-07-12 00:04:35,0.00,0.17,0.00,28.18,30.07,31.89,5.75,31.46,1011.18,2049.95,3374.04,3304.86,3583.88,349.38,316.48,15.63,0000 0000 0000 0000 000000
2013-07-12 00:05:35,0.01,0.17,0.00,28.20,30.07,31.95,5.70,31.33,1011.24,2049.94,3374.03,3304.85,3583.85,349.83,316.76,15.64,0000 0000 0000 0000 000000
2013-07-12 00:06:35,0.01,0.17,0.00,28.21,30.07,31.94,5.82,31.54,1011.24,2049.95,3374.03,3304.84,3583.89,350.07,316.61,15.64,0000 0000 0000 0000 000000
2013-07-12 00:07:35,0.00,0.17,0.00,28.24,30.07,31.89,5.88,31.25,1011.23,2049.95,3374.03,3304.74,3583.82,349.95,316.60,15.65,0000 0000 0000 0000 000000
2013-07-12 00:08:36,0.03,0.17,0.00,28.27,30.07,32.01,5.93,31.38,1011.23,2049.95,3374.02,3304.76,3583.76,350.02,316.74,15.65,0000 0000 0000 0000 000000
2013-07-12 00:09:36,0.00,0.17,0.00,28.25,30.07,32.00,5.93,31.38,1011.23,2049.93,3374.02,3304.79,3583.77,349.83,316.15,15.66,0000 0000 0000 0000 000000
2013-07-12 00:10:36,-0.02,0.17,0.00,28.26,30.08,31.95,5.86,31.29,1011.19,2049.93,3374.02,3304.68,3583.67,349.74,316.38,15.66,0000 0000 0000 0000 000000
2013-07-12 00:11:36,0.03,0.17,0.00,28.27,30.09,32.01,5.72,31.29,1011.21,2049.88,3374.00,3304.47,3583.50,349.19,315.88,15.67,0000 0000 0000 0000 000000
2013-07-12 00:12:36,0.01,0.17,0.00,28.28,30.10,31.90,5.79,31.38,1011.20,2049.84,3374.00,3304.21,3583.26,350.11,316.69,15.68,0000 0000 0000 0000 000000
2013-07-12 00:13:37,0.06,0.17,0.00,28.29,30.10,31.95,5.83,31.33,1011.21,2049.85,3374.00,3304.12,3583.16,349.34,315.98,15.68,0000 0000 0000 0000 000000
2013-07-12 00:14:37,0.05,0.17,0.00,28.26,30.10,32.03,5.88,31.25,1011.20,2049.83,3374.00,3304.12,3583.10,350.38,316.96,15.69,0000 0000 0000 0000 000000
2013-07-12 00:15:37,-0.01,0.17,0.00,28.25,30.10,32.05,5.83,31.38,1011.18,2049.90,3374.00,3304.09,3583.08,350.17,316.19,15.69,0000 0000 0000 0000 000000
2013-07-12 00:16:37,0.07,0.17,0.00,28.24,30.10,32.06,5.84,31.42,1011.18,2049.93,3374.00,3304.05,3583.06,349.74,316.04,15.70,0000 0000 0000 0000 000000
2013-07-12 00:17:38,0.02,0.17,0.00,28.23,30.10,32.08,5.82,31.25,1011.16,2049.91,3374.00,3304.06,3583.04,350.14,316.55,15.71,0000 0000 0000 0000 000000
2013-07-12 00:18:38,-0.03,0.17,0.00,28.27,30.10,32.12,5.70,31.17,1011.17,2049.87,3373.98,3304.05,3583.02,349.87,316.57,15.71,0000 0000 0000 0000 000000
2013-07-12 00:19:38,-0.03,0.17,0.00,28.27,30.11,32.12,5.63,31.25,1011.14,2049.80,3373.96,3304.04,3583.02,349.05,315.73,15.72,0000 0000 0000 0000 000000
2013-07-12 00:20:38,-0.05,0.17,0.00,28.29,30.12,32.13,5.75,31.29,1011.13,2049.82,3373.96,3304.02,3583.01,349.26,315.80,15.72,0000 0000 0000 0000 000000
2013-07-12 00:21:38,0.03,0.17,0.00,28.31,30.12,32.17,5.76,31.25,1011.05,2049.85,3373.95,3304.00,3583.00,350.04,316.46,15.73,0000 0000 0000 0000 000000
2013-07-12 00:22:38,0.07,0.17,0.00,28.30,30.12,32.18,5.81,31.33,1010.99,2049.71,3373.93,3304.00,3583.00,350.14,316.74,15.73,0000 0000 0000 0000 000000
2013-07-12 00:23:39,-0.17,0.17,0.00,28.31,30.12,32.13,5.81,31.29,1011.01,2049.45,3373.87,3304.00,3583.00,350.59,316.95,15.74,0000 0000 0000 0000 000000
2013-07-12 00:24:39,-0.19,0.17,0.00,28.32,30.12,32.14,5.95,31.50,1011.00,2049.24,3373.66,3304.00,3583.00,350.23,316.52,15.75,0000 0000 0000 0000 000000
2013-07-12 00:25:39,-0.11,0.17,0.00,28.34,30.12,32.17,5.81,31.21,1011.03,2049.23,3373.44,3304.00,3583.00,349.94,316.42,15.75,0000 0000 0000 0000 000000
2013-07-12 00:26:39,0.04,0.17,0.00,28.39,30.12,32.14,5.92,31.29,1011.01,2049.20,3373.25,3304.00,3583.00,350.28,316.67,15.76,0000 0000 0000 0000 000000
2013-07-12 00:27:40,0.00,0.17,0.00,28.38,30.14,32.11,5.80,31.21,1011.02,2049.17,3373.11,3304.00,3583.00,350.22,316.63,15.76,0000 0000 0000 0000 000000
2013-07-12 00:28:40,-0.01,0.17,0.00,28.39,30.14,32.07,5.69,31.33,1011.00,2049.13,3373.06,3304.00,3583.00,350.04,316.66,15.77,0000 0000 0000 0000 000000
2013-07-12 00:29:40,-0.03,0.17,0.00,28.40,30.15,32.08,5.84,31.29,1011.11,2049.09,3373.03,3303.97,3582.99,350.24,316.39,15.78,0000 0000 0000 0000 000000
2013-07-12 00:30:40,-0.02,0.17,0.00,28.40,30.15,31.96,5.86,31.33,1011.14,2049.05,3373.01,3303.95,3582.98,350.68,316.80,15.78,0000 0000 0000 0000 000000
2013-07-12 00:31:40,0.00,0.17,0.00,28.39,30.15,32.07,5.84,31.33,1011.19,2049.05,3373.00,3303.91,3582.97,350.41,316.58,15.79,0000 0000 0000 0000 000000
2013-07-12 00:32:41,0.00,0.17,0.00,28.36,30.15,31.99,5.76,31.25,1011.20,2049.04,3373.00,3303.85,3582.91,349.28,315.83,15.79,0000 0000 0000 0000 000000
2013-07-12 00:33:41,0.00,0.17,0.00,28.37,30.15,32.07,5.88,31.13,1011.22,2049.05,3373.00,3303.80,3582.86,349.38,315.95,15.80,0000 0000 0000 0000 000000
2013-07-12 00:34:41,0.04,0.17,0.00,28.37,30.15,32.10,5.98,31.46,1011.24,2049.03,3373.00,3303.70,3582.74,350.90,317.33,15.81,0000 0000 0000 0000 000000
2013-07-12 00:35:42,0.02,0.17,0.00,28.38,30.17,32.12,5.87,31.21,1011.24,2049.03,3373.00,3303.46,3582.54,350.37,316.84,15.81,0000 0000 0000 0000 000000
2013-07-12 00:36:42,0.06,0.17,0.00,28.35,30.17,32.19,5.79,31.50,1011.23,2049.05,3373.00,3303.51,3582.62,349.70,316.26,15.82,0000 0000 0000 0000 000000
2013-07-12 00:37:42,0.00,0.17,0.00,28.33,30.17,32.13,5.69,31.33,1011.22,2049.03,3373.00,3303.35,3582.44,350.17,316.71,15.82,0000 0000 0000 0000 000000
2013-07-12 00:38:42,0.05,0.17,0.00,28.33,30.17,32.16,5.87,31.33,1011.22,2049.01,3373.00,3303.22,3582.23,349.92,316.47,15.83,0000 0000 0000 0000 000000
2013-07-12 00:39:42,0.03,0.17,0.00,28.32,30.17,32.19,5.65,31.29,1011.22,2049.00,3373.00,3303.19,3582.18,349.09,315.73,15.83,0000 0000 0000 0000 000000
2013-07-12 00:40:43,0.01,0.17,0.00,28.31,30.17,32.05,5.59,31.25,1011.23,2049.02,3373.00,3303.18,3582.20,349.26,316.16,15.84,0000 0000 0000 0000 000000
2013-07-12 00:41:43,0.00,0.17,0.00,28.34,30.18,32.07,5.86,31.46,1011.23,2049.02,3373.00,3303.19,3582.17,350.24,316.83,15.85,0000 0000 0000 0000 000000
2013-07-12 00:42:43,0.00,0.17,0.00,28.36,30.18,32.19,5.85,31.79,1011.20,2049.01,3372.94,3303.10,3582.11,349.65,316.20,15.85,0000 0000 0000 0000 000000
2013-07-12 00:43:43,0.01,0.17,0.00,28.31,30.19,32.22,5.68,31.50,1011.21,2049.01,3372.84,3303.04,3582.05,349.71,316.09,15.86,0000 0000 0000 0000 000000
2013-07-12 00:44:43,0.03,0.17,0.00,28.29,30.20,32.15,5.78,31.46,1011.21,2049.01,3372.80,3303.01,3582.04,350.81,317.74,15.86,0000 0000 0000 0000 000000
2013-07-12 00:45:44,0.00,0.17,0.00,28.32,30.20,32.20,5.83,31.33,1011.22,2049.00,3372.82,3303.02,3582.02,350.33,316.86,15.87,0000 0000 0000 0000 000000
2013-07-12 00:46:44,0.00,0.17,0.00,28.39,30.20,32.12,5.78,31.29,1011.21,2049.00,3372.78,3303.00,3582.00,350.54,316.58,15.88,0000 0000 0000 0000 000000
2013-07-12 00:47:44,0.00,0.17,0.00,28.40,30.20,32.13,5.72,31.46,1011.20,2049.00,3372.64,3303.00,3582.01,349.60,316.11,15.88,0000 0000 0000 0000 000000
2013-07-12 00:48:44,0.01,0.17,0.00,28.42,30.20,32.12,5.69,31.54,1011.15,2049.00,3372.53,3303.00,3582.00,349.17,315.27,15.89,0000 0000 0000 0000 000000
2013-07-12 00:49:45,0.02,0.17,0.00,28.38,30.21,32.07,5.79,31.63,1011.20,2049.00,3372.32,3303.00,3582.00,350.05,316.54,15.89,0000 0000 0000 0000 000000
2013-07-12 00:50:45,0.03,0.17,0.00,28.38,30.22,32.15,5.78,31.33,1011.19,2049.00,3372.15,3303.00,3582.00,349.72,316.42,15.90,0000 0000 0000 0000 000000
2013-07-12 00:51:45,0.02,0.17,0.00,28.44,30.22,32.16,5.80,31.33,1011.15,2049.00,3372.16,3303.00,3582.00,349.86,316.57,15.90,0000 0000 0000 0000 000000
2013-07-12 00:52:45,-0.00,0.17,0.00,28.45,30.22,32.22,5.82,31.33,1011.18,2049.00,3372.22,3303.00,3582.00,349.51,315.79,15.91,0000 0000 0000 0000 000000
2013-07-12 00:53:46,-0.01,0.17,0.00,28.49,30.22,32.18,5.75,31.17,1011.22,2049.00,3372.20,3303.00,3581.99,349.34,315.67,15.92,0000 0000 0000 0000 000000
2013-07-12 00:54:46,0.00,0.17,0.00,28.51,30.22,32.18,5.79,31.25,1011.24,2049.00,3372.11,3302.99,3581.98,349.88,316.26,15.92,0000 0000 0000 0000 000000
2013-07-12 00:55:46,0.02,0.17,0.00,28.53,30.22,32.22,5.75,31.50,1011.23,2049.00,3372.08,3302.98,3581.96,349.77,316.13,15.93,0000 0000 0000 0000 000000
2013-07-12 00:56:46,0.00,0.17,0.00,28.53,30.23,32.26,5.87,31.46,1011.21,2049.00,3372.08,3302.99,3581.97,350.68,316.95,15.93,0000 0000 0000 0000 000000
2013-07-12 00:57:46,0.00,0.17,0.00,28.50,30.24,32.29,5.87,31.21,1011.22,2049.00,3372.04,3302.98,3581.94,350.13,316.49,15.94,0000 0000 0000 0000 000000
2013-07-12 00:58:47,0.01,0.17,0.00,28.49,30.25,32.28,5.83,31.25,1011.24,2049.00,3372.03,3302.94,3581.86,350.39,316.74,15.95,0000 0000 0000 0000 000000
2013-07-12 00:59:47,0.02,0.17,0.00,28.51,30.25,32.28,5.83,31.38,1011.23,2049.00,3372.00,3302.96,3581.86,350.17,316.51,15.95,0000 0000 0000 0000 000000
2013-07-12 01:00:47,0.01,0.17,0.00,28.52,30.25,32.16,5.73,31.21,1011.21,2049.00,3372.00,3302.83,3581.66,349.89,316.45,15.96,0000 0000 0000 0000 000000
2013-07-12 01:01:47,0.05,0.17,0.00,28.51,30.25,32.20,5.68,31.13,1011.23,2049.00,3372.00,3302.78,3581.47,349.88,315.96,15.96,0000 0000 0000 0000 000000
2013-07-12 01:02:48,0.03,0.17,0.00,28.49,30.25,32.26,5.83,31.25,1011.17,2049.00,3372.00,3302.63,3581.31,350.12,316.35,15.97,0000 0000 0000 0000 000000
2013-07-12 01:03:48,0.05,0.17,0.00,28.52,30.25,32.23,5.78,31.21,1011.06,2049.00,3372.00,3302.48,3581.21,349.22,315.89,15.97,0000 0000 0000 0000 000000
2013-07-12 01:04:48,0.04,0.17,0.00,28.52,30.26,32.27,5.89,31.46,1010.99,2049.00,3371.98,3302.26,3581.10,350.12,316.39,15.98,0000 0000 0000 0000 000000
2013-07-12 01:05:48,0.04,0.17,0.00,28.52,30.27,32.17,5.89,31.42,1010.97,2048.99,3371.98,3302.16,3581.05,350.47,316.54,15.99,0000 0000 0000 0000 000000
2013-07-12 01:06:49,0.01,0.17,0.00,28.49,30.27,32.21,5.81,31.00,1011.07,2048.99,3371.96,3302.13,3581.02,349.86,316.13,15.99,0000 0000 0000 0000 000000
2013-07-12 01:07:49,0.01,0.17,0.00,28.47,30.27,32.17,5.77,31.17,1011.05,2048.98,3371.92,3302.10,3581.02,350.40,316.71,16.00,0000 0000 0000 0000 000000
2013-07-12 01:08:49,0.00,0.17,0.00,28.53,30.27,32.15,5.62,31.21,1011.06,2048.97,3371.85,3302.04,3581.00,349.03,315.41,16.00,0000 0000 0000 0000 000000
2013-07-12 01:09:49,0.01,0.17,0.00,28.54,30.27,32.16,5.73,31.21,1011.12,2048.98,3371.68,3302.01,3581.00,349.97,316.17,16.01,0000 0000 0000 0000 000000
2013-07-12 01:10:49,0.04,0.17,0.00,28.55,30.28,32.13,5.64,31.33,1011.16,2048.98,3371.52,3302.00,3581.00,349.50,315.84,16.02,0000 0000 0000 0000 000000
2013-07-12 01:11:50,0.02,0.17,0.00,28.53,30.29,32.18,5.79,31.04,1011.18,2048.98,3371.35,3302.00,3581.00,350.53,317.00,16.02,0000 0000 0000 0000 000000
2013-07-12 01:12:50,0.01,0.17,0.00,28.50,30.30,32.12,5.85,31.42,1011.18,2048.98,3371.13,3302.00,3580.99,350.24,316.38,16.03,0000 0000 0000 0000 000000
2013-07-12 01:13:50,0.04,0.17,0.00,28.48,30.30,32.26,5.80,31.21,1011.13,2048.98,3371.05,3302.00,3580.98,349.87,316.35,16.03,0000 0000 0000 0000 000000
2013-07-12 01:14:50,0.01,0.17,0.00,28.53,30.30,32.25,5.89,31.21,1011.07,2048.95,3371.02,3301.97,3580.92,351.08,316.97,16.04,0000 0000 0000 0000 000000
2013-07-12 01:15:51,-0.01,0.17,0.00,28.55,30.30,32.28,5.81,31.25,1011.10,2048.93,3371.00,3301.97,3580.84,349.58,315.91,16.04,0000 0000 0000 0000 000000
2013-07-12 01:16:51,-0.02,0.17,0.00,28.57,30.30,32.25,5.83,31.38,1011.14,2048.90,3371.00,3301.94,3580.59,349.52,315.84,16.05,0000 0000 0000 0000 000000
2013-07-12 01:17:51,0.01,0.17,0.00,28.57,30.30,32.20,5.82,31.42,1011.16,2048.88,3371.00,3301.94,3580.37,349.63,315.94,16.06,0000 0000 0000 0000 000000
2013-07-12 01:18:51,0.03,0.17,0.00,28.60,30.32,32.32,5.83,31.21,1011.15,2048.85,3371.00,3301.94,3580.26,349.99,316.24,16.06,0000 0000 0000 0000 000000
2013-07-12 01:19:52,-0.01,0.17,0.00,28.57,30.32,32.32,5.89,31.25,1011.20,2048.90,3371.00,3301.96,3580.29,349.75,316.06,16.07,0000 0000 0000 0000 000000
2013-07-12 01:20:52,0.04,0.17,0.00,28.61,30.32,32.34,5.80,31.38,1011.21,2048.94,3371.00,3301.91,3580.18,350.64,316.83,16.07,0000 0000 0000 0000 000000
2013-07-12 01:21:52,0.05,0.17,0.00,28.56,30.32,32.22,5.90,31.42,1011.18,2048.89,3370.99,3301.67,3580.07,350.06,316.35,16.08,0000 0000 0000 0000 000000
2013-07-12 01:22:53,0.02,0.17,0.00,28.55,30.32,32.27,5.91,31.33,1011.16,2048.88,3370.98,3301.51,3580.03,350.40,316.76,16.09,0000 0000 0000 0000 000000
2013-07-12 01:23:53,0.01,0.17,0.00,28.56,30.32,32.23,5.95,31.25,1011.20,2048.78,3370.98,3301.40,3580.01,351.20,317.10,16.09,0000 0000 0000 0000 000000
2013-07-12 01:24:53,-0.01,0.17,0.00,28.57,30.34,32.27,5.65,31.25,1011.19,2048.76,3370.99,3301.31,3580.00,349.19,315.92,16.10,0000 0000 0000 0000 000000
2013-07-12 01:25:53,-0.01,0.17,0.00,28.60,30.35,32.34,5.82,31.25,1011.22,2048.64,3370.95,3301.16,3580.00,349.88,316.41,16.10,0000 0000 0000 0000 000000
2013-07-12 01:26:54,-0.06,0.17,0.00,28.62,30.35,32.35,5.79,31.21,1011.22,2048.50,3370.92,3301.08,3580.00,350.20,316.43,16.11,0000 0000 0000 0000 000000
2013-07-12 01:27:54,-0.11,0.17,0.00,28.63,30.35,32.23,5.63,31.46,1011.22,2048.43,3370.91,3301.06,3580.00,349.80,316.06,16.12,0000 0000 0000 0000 000000
2013-07-12 01:28:54,-0.01,0.17,0.00,28.60,30.35,32.21,5.70,31.25,1011.22,2048.40,3370.68,3301.04,3580.00,349.67,316.01,16.12,0000 0000 0000 0000 000000
2013-07-12 01:29:55,-0.03,0.17,0.00,28.60,30.35,32.25,5.82,31.33,1011.19,2048.37,3370.46,3301.02,3579.99,349.12,315.47,16.13,0000 0000 0000 0000 000000
2013-07-12 01:30:55,0.04,0.17,0.00,28.60,30.36,32.27,5.71,31.29,1011.22,2048.45,3370.37,3301.01,3579.99,349.47,315.78,16.13,0000 0000 0000 0000 000000
2013-07-12 01:31:55,0.05,0.17,0.00,28.60,30.37,32.23,5.80,31.25,1011.23,2048.31,3370.24,3301.00,3579.97,350.46,316.86,16.14,0000 0000 0000 0000 000000
2013-07-12 01:32:55,-0.08,0.17,0.00,28.64,30.37,32.33,5.77,31.42,1011.23,2048.24,3370.15,3301.00,3579.96,349.84,315.94,16.14,0000 0000 0000 0000 000000
2013-07-12 01:33:56,-0.04,0.17,0.00,28.66,30.37,32.24,5.63,31.17,1011.23,2048.13,3370.07,3301.00,3579.83,349.64,316.06,16.15,0000 0000 0000 0000 000000
2013-07-12 01:34:56,-0.04,0.17,0.00,28.68,30.37,32.34,5.77,31.42,1011.22,2048.11,3370.02,3301.00,3579.70,350.32,316.59,16.16,0000 0000 0000 0000 000000
2013-07-12 01:35:56,0.00,0.17,0.00,28.69,30.37,32.34,5.87,31.25,1011.19,2048.10,3370.00,3300.99,3579.58,350.80,317.06,16.16,0000 0000 0000 0000 000000
2013-07-12 01:36:56,0.01,0.17,0.00,28.71,30.38,32.28,5.92,31.33,1011.22,2048.08,3370.00,3300.98,3579.41,350.82,316.90,16.17,0000 0000 0000 0000 000000
2013-07-12 01:37:56,0.01,0.17,0.00,28.74,30.40,32.29,6.01,31.38,1011.23,2048.05,3370.00,3300.98,3579.21,351.22,317.22,16.17,0000 0000 0000 0000 000000
2013-07-12 01:38:57,0.01,0.17,0.00,28.75,30.40,32.30,5.79,31.29,1011.24,2048.05,3370.00,3300.93,3579.10,350.07,316.37,16.18,0000 0000 0000 0000 000000
2013-07-12 01:39:57,0.02,0.17,0.00,28.74,30.40,32.30,5.73,31.38,1011.22,2048.11,3369.99,3300.86,3579.06,349.90,316.03,16.19,0000 0000 0000 0000 000000
2013-07-12 01:40:57,0.04,0.17,0.00,28.74,30.40,32.38,5.72,31.29,1011.21,2048.10,3369.96,3300.79,3579.03,349.87,315.80,16.19,0000 0000 0000 0000 000000
2013-07-12 01:41:57,0.03,0.17,0.00,28.73,30.40,32.30,5.77,31.54,1011.23,2048.08,3369.92,3300.49,3579.01,349.40,315.59,16.20,0000 0000 0000 0000 000000
2013-07-12 01:42:58,0.06,0.17,0.00,28.72,30.40,32.33,5.87,31.88,1011.21,2048.05,3369.78,3300.22,3579.00,350.91,316.96,16.20,0000 0000 0000 0000 000000
2013-07-12 01:43:58,0.05,0.17,0.00,28.74,30.42,32.29,5.92,31.75,1011.24,2048.04,3369.64,3300.11,3579.00,350.81,316.65,16.21,0000 0000 0000 0000 000000
2013-07-12 01:44:58,0.03,0.17,0.00,28.74,30.42,32.29,5.77,31.29,1011.24,2048.04,3369.49,3300.07,3579.00,350.43,316.37,16.22,0000 0000 0000 0000 000000
2013-07-12 01:45:59,0.01,0.17,0.00,28.80,30.42,32.28,5.81,31.38,1011.24,2048.01,3369.43,3300.05,3579.00,349.83,315.92,16.22,0000 0000 0000 0000 000000
2013-07-12 01:46:59,-0.01,0.17,0.00,28.79,30.42,32.40,5.82,31.29,1011.24,2048.01,3369.60,3300.02,3579.00,349.76,315.58,16.23,0000 0000 0000 0000 000000
2013-07-12 01:47:59,-0.01,0.17,0.00,28.77,30.43,32.38,5.74,31.38,1011.24,2048.00,3369.35,3300.00,3578.99,349.40,315.43,16.23,0000 0000 0000 0000 000000
2013-07-12 01:48:59,0.03,0.17,0.00,28.80,30.44,32.38,5.81,31.17,1011.24,2048.00,3369.17,3300.00,3578.97,349.71,315.80,16.24,0000 0000 0000 0000 000000
2013-07-12 01:50:00,0.02,0.17,0.00,28.79,30.45,32.35,5.86,31.33,1011.23,2048.00,3369.09,3300.00,3578.92,350.85,316.84,16.24,0000 0000 0000 0000 000000
2013-07-12 01:51:00,0.01,0.17,0.00,28.83,30.45,32.38,5.81,31.25,1011.23,2048.00,3369.07,3300.00,3578.82,349.96,315.93,16.25,0000 0000 0000 0000 000000
2013-07-12 01:52:00,0.01,0.17,0.00,28.87,30.45,32.35,5.77,31.33,1011.23,2048.00,3369.03,3300.00,3578.69,350.30,316.26,16.26,0000 0000 0000 0000 000000
2013-07-12 01:53:00,0.02,0.17,0.00,28.86,30.45,32.49,5.80,31.33,1011.24,2048.00,3369.02,3300.00,3578.45,350.12,315.75,16.26,0000 0000 0000 0000 000000
2013-07-12 01:54:01,0.03,0.17,0.00,28.83,30.46,32.48,5.78,31.25,1011.24,2048.00,3369.01,3299.99,3578.21,350.62,316.90,16.27,0000 0000 0000 0000 000000
2013-07-12 01:55:01,0.03,0.17,0.00,28.84,30.47,32.44,5.90,31.29,1011.24,2048.00,3369.00,3299.96,3578.11,350.46,315.56,16.27,0000 0000 0000 0000 000000
2013-07-12 01:56:01,0.01,0.17,0.00,28.84,30.47,32.41,5.88,31.17,1011.24,2048.00,3369.00,3299.95,3578.07,350.36,316.34,16.28,0000 0000 0000 0000 000000
2013-07-12 01:57:01,0.01,0.17,0.00,28.85,30.47,32.39,5.88,31.21,1011.24,2048.00,3369.00,3299.95,3578.04,350.64,316.59,16.29,0000 0000 0000 0000 000000
2013-07-12 01:58:02,0.00,0.17,0.00,28.85,30.47,32.36,5.76,31.38,1011.24,2048.00,3368.98,3299.93,3578.01,350.09,315.92,16.29,0000 0000 0000 0000 000000
2013-07-12 01:59:02,0.01,0.17,0.00,28.86,30.49,32.40,5.88,31.25,1011.24,2048.00,3368.98,3299.86,3578.00,350.02,316.35,16.30,0000 0000 0000 0000 000000
2013-07-12 02:00:02,0.01,0.17,0.00,28.88,30.50,32.51,5.63,31.25,1011.24,2048.00,3368.98,3299.75,3578.00,349.06,315.14,16.30,0000 0000 0000 0000 000000
2013-07-12 02:01:03,0.02,0.17,0.00,28.88,30.50,32.43,5.72,31.33,1011.24,2047.99,3368.93,3299.56,3578.00,349.84,315.67,16.31,0000 0000 0000 0000 000000
2013-07-12 02:02:03,0.02,0.17,0.00,28.87,30.50,32.39,5.86,31.21,1011.26,2047.94,3368.92,3299.34,3577.99,350.70,316.32,16.31,0000 0000 0000 0000 000000
2013-07-12 02:03:03,0.03,0.17,0.00,28.88,30.50,32.50,5.77,31.21,1011.26,2047.96,3368.88,3299.20,3577.99,349.99,315.97,16.32,0000 0000 0000 0000 000000
2013-07-12 02:04:03,0.02,0.17,0.00,28.89,30.51,32.44,5.71,31.17,1011.25,2047.95,3368.91,3299.14,3577.99,349.74,315.75,16.33,0000 0000 0000 0000 000000
2013-07-12 02:05:03,0.01,0.17,0.00,28.90,30.52,32.51,5.78,31.08,1011.25,2047.97,3368.81,3299.14,3577.98,350.03,315.98,16.33,0000 0000 0000 0000 000000
2013-07-12 02:06:04,0.03,0.17,0.00,28.92,30.52,32.49,5.58,31.25,1011.25,2047.94,3368.54,3299.06,3577.96,349.28,315.29,16.34,0000 0000 0000 0000 000000
2013-07-12 02:07:04,0.03,0.17,0.00,28.92,30.52,32.46,5.80,31.21,1011.25,2047.91,3368.42,3299.03,3577.96,350.00,315.93,16.34,0000 0000 0000 0000 000000
2013-07-12 02:08:04,-0.03,0.17,0.00,28.92,30.53,32.52,5.63,31.13,1011.25,2047.81,3368.42,3299.02,3577.91,349.86,315.45,16.35,0000 0000 0000 0000 000000
2013-07-12 02:09:05,-0.05,0.17,0.00,28.92,30.54,32.49,5.83,31.29,1011.25,2047.76,3368.30,3299.00,3577.76,349.37,315.76,16.36,0000 0000 0000 0000 000000
2013-07-12 02:10:05,0.02,0.17,0.00,28.90,30.55,32.46,5.92,31.21,1011.25,2047.70,3368.16,3299.00,3577.43,350.50,316.40,16.36,0000 0000 0000 0000 000000
2013-07-12 02:11:05,-0.05,0.17,0.00,28.92,30.55,32.48,5.74,31.21,1011.25,2047.54,3368.08,3299.00,3577.34,349.93,315.74,16.37,0000 0000 0000 0000 000000
2013-07-12 02:12:05,-0.03,0.17,0.00,28.92,30.55,32.48,5.73,31.25,1011.25,2047.61,3368.10,3299.00,3577.28,350.05,315.89,16.37,0000 0000 0000 0000 000000
2013-07-12 02:13:05,0.04,0.17,0.00,28.92,30.55,32.47,5.87,31.29,1011.25,2047.56,3368.06,3299.00,3577.18,350.36,316.24,16.38,0000 0000 0000 0000 000000
2013-07-12 02:14:06,-0.03,0.17,0.00,28.93,30.57,32.48,5.87,31.25,1011.26,2047.42,3368.02,3299.00,3577.09,350.23,316.17,16.39,0000 0000 0000 0000 000000
2013-07-12 02:15:06,-0.09,0.17,0.00,28.90,30.57,32.56,5.69,31.46,1011.26,2047.28,3368.00,3298.99,3577.05,349.06,315.11,16.39,0000 0000 0000 0000 000000
2013-07-12 02:16:06,-0.11,0.17,0.00,28.92,30.57,32.56,5.88,31.25,1011.26,2047.18,3368.00,3298.98,3577.02,350.68,316.56,16.40,0000 0000 0000 0000 000000
2013-07-12 02:17:07,-0.05,0.17,0.00,28.95,30.57,32.56,5.77,31.17,1011.26,2047.17,3368.00,3298.97,3577.00,350.30,316.37,16.40,0000 0000 0000 0000 000000
2013-07-12 02:18:07,-0.01,0.17,0.00,28.96,30.59,32.51,5.65,31.29,1011.25,2047.12,3368.00,3298.96,3577.00,349.19,315.17,16.41,0000 0000 0000 0000 000000
2013-07-12 02:19:07,-0.03,0.17,0.00,28.98,30.60,32.55,5.83,31.33,1011.25,2047.06,3367.99,3298.94,3577.00,350.09,315.95,16.41,0000 0000 0000 0000 000000
2013-07-12 02:20:08,-0.04,0.17,0.00,29.01,30.60,32.51,5.91,31.25,1011.25,2047.05,3367.99,3298.79,3576.99,350.63,316.27,16.42,0000 0000 0000 0000 000000
2013-07-12 02:21:08,0.03,0.17,0.00,29.03,30.60,32.50,5.83,31.25,1011.25,2047.06,3367.98,3298.59,3576.99,350.26,316.06,16.43,0000 0000 0000 0000 000000
2013-07-12 02:22:08,0.04,0.17,0.00,29.02,30.60,32.60,5.91,31.38,1011.25,2047.04,3367.95,3298.43,3576.97,350.81,316.57,16.43,0000 0000 0000 0000 000000
2013-07-12 02:23:08,0.03,0.17,0.00,29.03,30.62,32.62,5.73,31.17,1011.25,2047.01,3367.77,3298.22,3576.97,349.37,315.26,16.44,0000 0000 0000 0000 000000
2013-07-12 02:24:09,0.03,0.17,0.00,29.05,30.62,32.60,5.73,31.08,1011.25,2047.02,3367.63,3298.12,3576.96,349.83,316.16,16.44,0000 0000 0000 0000 000000
2013-07-12 02:25:09,0.05,0.17,0.00,29.06,30.62,32.55,5.71,31.08,1011.25,2047.02,3367.59,3298.05,3576.94,349.79,315.60,16.45,0000 0000 0000 0000 000000
2013-07-12 02:26:09,0.02,0.17,0.00,29.01,30.62,32.59,5.90,31.33,1011.25,2047.00,3367.58,3298.05,3576.88,350.50,316.30,16.46,0000 0000 0000 0000 000000
2013-07-12 02:27:10,-0.00,0.17,0.00,29.03,30.64,32.55,5.88,31.21,1011.25,2047.00,3367.45,3298.04,3576.73,349.79,315.63,16.46,0000 0000 0000 0000 000000
2013-07-12 02:28:10,0.03,0.17,0.00,29.05,30.65,32.62,5.84,31.17,1011.25,2047.00,3367.26,3298.01,3576.50,350.26,316.04,16.47,0000 0000 0000 0000 000000
2013-07-12 02:29:10,0.05,0.17,0.00,29.05,30.65,32.60,5.68,31.08,1011.25,2047.00,3367.13,3298.00,3576.37,349.05,315.12,16.47,0000 0000 0000 0000 000000
2013-07-12 02:30:10,0.03,0.17,0.00,29.08,30.65,32.59,5.85,31.25,1011.25,2047.00,3367.06,3298.00,3576.16,349.38,315.44,16.48,0000 0000 0000 0000 000000
2013-07-12 02:31:11,0.02,0.17,0.00,29.08,30.66,32.62,5.84,31.21,1011.25,2047.00,3367.03,3298.00,3576.07,349.55,315.41,16.48,0000 0000 0000 0000 000000
2013-07-12 02:32:11,0.01,0.17,0.00,29.08,30.67,32.56,5.66,31.25,1011.25,2047.00,3367.01,3298.00,3576.04,349.87,315.65,16.49,0000 0000 0000 0000 000000
2013-07-12 02:33:11,0.00,0.17,0.00,29.11,30.67,32.66,5.87,31.38,1011.25,2047.00,3367.00,3298.00,3576.01,350.50,316.19,16.50,0000 0000 0000 0000 000000
2013-07-12 02:34:11,0.00,0.17,0.00,29.10,30.67,32.63,5.60,31.21,1011.25,2047.00,3367.00,3298.00,3576.00,349.12,314.96,16.50,0000 0000 0000 0000 000000
2013-07-12 02:35:12,0.00,0.17,0.00,29.12,30.68,32.69,5.86,31.38,1011.25,2047.00,3367.00,3297.97,3576.00,349.39,315.18,16.51,0000 0000 0000 0000 000000
2013-07-12 02:36:12,0.00,0.17,0.00,29.13,30.69,32.62,5.96,31.25,1011.25,2047.00,3366.99,3297.97,3576.00,351.07,316.69,16.51,0000 0000 0000 0000 000000